Kosmos-622

operational
NORAD ID: 6990 Int'l Des: 1973-104 Owner: GUKOSR Country: SU
LEOCIRCULAR

Kosmos-622について

説明を読み込み中...

リアルタイム位置

3D地球を読み込み中...

次回通過

高度履歴

Altitude vs Time

uPlot chart will show altitude changes over time

軌道要素

1 06990U 73104F 26062.61289676 -.00000029 00000-0 -73402-4 0 9993
2 06990 74.0299 35.0067 0073142 121.0579 0.5728 12.59118910399347
Epoch: Mar 3, 2026 • Age: 25 hours

現在のステータス

高度 1464.4 km
速度 7.12 km/s
衛星直下点 -48.34°S, 59.04°E
タイプ other

大規模コンステレーション

Loading constellations...